Regional Weather Roundup
Issued by NWS Charleston, SC

Current Version | Previous Version | Graphics & Text | Print | Product List | Glossary On
Versions: 1 2 3 4 5 6 7 8 9 10 11 12 13 14 15 16 17 18 19 20 21 22 23 24 25 26 27 28 29 30 31 32 33 34 35 36 37 38 39 40 41 42 43 44 45 46 47 48 49 50
000 ASUS42 KCHS 272210 RWRCHS REGIONAL WEATHER ROUNDUP NATIONAL WEATHER SERVICE CHARLESTON SC 600 PM EDT WED AUG 27 2014 NOTE: "FAIR" INDICATES FEW OR NO CLOUDS BELOW 12,000 FEET WITH NO SIGNIFICANT WEATHER AND/OR OBSTRUCTIONS TO VISIBILITY. NOT ALL STATIONS ARE QUALITY CONTROLLED BY THE NATIONAL WEATHER SERVICE. USE DATA WITH CAUTION...ESPECIALLY DEWPOINT OBSERVATIONS. SCZ027-030-031-034>040-042>050-272300- ...SOUTH CAROLINA... CITY SKY/WX TMP DP RH WIND PRES REMARKS N CHARLESTON MOSUNNY 88 59 37 N7 29.97S WATERFRONT PRK N/A 86 N/A N/A N7 N/A FORT JOHNSON NOT AVBL MOUNT PLEASANT FAIR 88 64 45 NW7 29.96S JOHNS ISLAND CLEAR 84 66 54 CALM 29.97S PINOPOLIS N/A 90 59 35 W2 29.89F MONCKS CORNER NOT AVBL SUMMERVILLE FAIR 88 59 37 CALM 29.98S BEAUFORT MCAS MOSUNNY 89 58 34 N6 29.97S BEAUFORT ARPT FAIR 86 64 48 NW5 29.97S HILTON HEAD IS SUNNY 84 66 54 SE5 29.99R GEORGETOWN NOT AVBL WALTERBORO CLEAR 90 52 27 CALM 29.98S ORANGEBURG SUNNY 90 50 25 NE8 29.98R BARNWELL FAIR 91 52 25 NE8 29.98S AIKEN FAIR 90 57 33 NE9 30.02S MANNING FAIR 90 57 33 N6 29.97S KINGSTREE NOT AVBL COLUMBIA MOSUNNY 92 50 23 NE7 29.97S SUMTER SUNNY 89 52 27 N8 29.96S FLORENCE SUNNY 90 49 24 VRB7 29.96S MYRTLE BEACH MOSUNNY 88 63 42 N12 29.96R N MYRTLE BEACH NOT AVBL $$ GAZ063-065-086>088-099>101-113>116-118-119-134-136>141-150-272300- ...GEORGIA... CITY SKY/WX TMP DP RH WIND PRES REMARKS SAVANNAH ARPT SUNNY 88 55 32 NE7 29.98S HUNTER AAF SUNNY 87 58 36 N8 29.96S FORT STEWART SUNNY 89 57 34 NE9 29.96S STATESBORO NOT AVBL SYLVANIA CLEAR 89 61 38 NW3 29.99S CLAXTON NOT AVBL THOMSON SUNNY 92 61 35 NE6 30.04S HX 92 AUGUSTA-BUSH SUNNY 93 49 22 NE8 29.96F HX 90 AUGUSTA-DANIEL SUNNY 94 47 20 VRB3 29.99S HX 90 SWAINSBORO FAIR 91 59 33 N6 29.99S HX 90 VIDALIA N/A 90 59 35 E6 29.98S ALMA SUNNY 91 54 28 CALM 29.96F WAYCROSS SUNNY 93 61 34 NE5 29.97S HX 92 JESUP N/A 91 59 33 NE3 29.97S HX 90 BRUNSWICK SUNNY 84 63 48 E8 29.99R SAINT SIMONS SUNNY 82 64 54 E10 29.98S $$ SCZ027-028-034-036>038-045-046-048>050-GAZ119-141-272300- ...LAKE AND SUPPLEMENTAL COASTAL OBSERVATIONS... STATION/POSITION TIME TEMP WIND PRES WAVE SWELL AIR SEA DIR/SP/G HT/PER HT/PER/DIR (UTC) (F) (DEG/KT/KT) (MB) (FT/S) (FT/S/D) UPR LAKE MARION NOT AVBL WINYAH BAY 2100 85 320/ 4 1014.0S LAKE MURRAY 2100 90 350/ 3/ 9 1014.6S ACE BASIN NERRS 2100 90 320/ 2 1015.0S FORT PULASKI 2200 83 80/ 6/ 7 1015.4S SAPELO ISLAND 2100 84 80/ 9 1016.0S $$ ANZ835-935-AMZ111-154-330-350-352-354-374-450-454-472-272300- ...C-MAN AND BUOY OBSERVATIONS... STATION/POSITION TIME TEMP WIND PRES WAVE SWELL AIR SEA DIR/SP/G HT/PER HT/PER/DIR (UTC) (F) (DEG/KT/KT) (MB) (FT/S) (FT/S/D) FOLLY BEACH CMAN 2100 81 150/ 6/ 7 1015.2F BUOY 41004 2200 81 82 10/ 10/ 12 1014.2S 6/11 5/11 BUOY 41008 2200 81 85 70/ 8/ 10 1015.4S 4/ 8 3/110/ 8 5E ST. MARYS GA 2200 84 N/A 4/10 2/ 90/11 FRYING PAN BUOY NOT AVBL BUOY 41025 2200 77 350/ 21/ 27 1011.7R 11/12 8/140/12 CAPE LOOKOUT NC 2100 80 40/ 15/ 18 1012.9S BUOY 41002 2058 81 81 340/ 17/ 25 1010.6R 10/ 9 7/ 40/ 9 BUOY 41010 2200 82 85 20/ 8/ 12 1014.0F 9/11 8/ 60/11 BUOY 41012 NOT AVBL ST AUGUSTINE FL 2200 80 30/ 13/ 15 1015.9S CAPERS NEARSHORE 2100 84 170/ 4/ 6 N/A FRIPP NEARSHORE NOT AVBL $$

USA.gov is the U.S. government's official web portal to all federal, state and local government web resources and services.